This demonstration page uses our WeatherBlox Daily Observations layout. Learn more.

Left ArrowRight Arrow

44.8408, -93.29828

Hourly Observations for May 25, 2015

Temp ( °F °C ) Dew Point ( °F °C ) Humidity (%) Winds ( mph kmh ) Pressure ( in mb ) Visibility ( mi km ) Precip ( " mm )
12:13 am 00:13 Cloudy with Rain 58 14.4 57 13.9 97 97 E 9 15 29.77 1008 2 3 0.04 1.02
12:30 am 00:30 Cloudy with Light Rain 57 14 57 14 100 100 E 9 15 29.77 1008 3 5 0.00 0.00
12:53 am 00:53 Cloudy with Light Rain 58 14.4 57 13.9 97 97 E 9 15 29.75 1007 6 10 0.06 1.52
1:35 am 01:35 Cloudy with Rain 58 14.4 57 13.9 97 97 E 13 20 29.74 1007 2 3 0.05 1.27
1:53 am 01:53 Cloudy with Light Rain 58 14.4 58 14.4 100 100 E 12 19 29.72 1006 3 4 0.11 2.79
2:28 am 02:28 Cloudy with Rain 57 14 57 14 100 100 E 12 19 29.71 1006 2 3 0.00 0.00
2:42 am 02:42 Cloudy with Light Rain 58 14.4 57 13.9 97 97 E 14 22 29.71 1006 3 5 0.05 1.27
2:53 am 02:53 Cloudy with Light Rain 58 14.4 57 13.9 97 97 ESE 13 20 29.70 1006 4 6 0.05 1.27
3:10 am 03:10 Cloudy with Mist and Fog 57 14 57 14 100 100 ESE 10 17 29.71 1006 4 6 0.00 0.00
3:53 am 03:53 Cloudy with Mist and Fog 58 14.4 57 13.9 97 97 ESE 9 15 29.69 1005 6 10 0.01 0.25
4:53 am 04:53 Cloudy 58 14.4 57 13.9 97 97 ESE 9 15 29.67 1005 7 11 0.00 0.03
5:33 am 05:33 Cloudy with Mist and Fog 57 13.9 57 13.9 100 100 ESE 7 11 29.65 1004 3 5 0.00 0.00
5:53 am 05:53 Cloudy with Mist and Fog 57 13.9 57 13.9 100 100 ESE 10 17 29.66 1004 2 3 0.00 0.00
6:39 am 06:39 Cloudy with Mist and Fog 57 13.9 57 13.9 100 100 ESE 5 7 29.68 1005 1 2 0.00 0.00
6:53 am 06:53 Cloudy with Mist and Fog 58 14.4 58 14.4 100 100 SE 5 7 29.67 1005 1 1 0.00 0.00
7:21 am 07:21 Cloudy with Mist and Fog 58 14.4 58 14.4 100 100 ESE 5 7 29.65 1004 1 2 0.00 0.00
7:36 am 07:36 Cloudy with Mist and Fog 57 14 57 14 100 100 SSE 5 7 29.65 1004 2 2 0.00 0.00
7:53 am 07:53 Cloudy with Mist and Fog 59 15 59 15 100 100 SE 6 9 29.66 1004 2 3 0.00 0.00
8:44 am 08:44 Cloudy with Mist and Fog 61 16 61 16 100 100 SSW 6 9 29.68 1005 3 5 0.00 0.00
8:51 am 08:51 Cloudy with Mist and Fog 61 16 61 16 100 100 SSW 8 13 29.68 1005 4 6 0.00 0.00
8:53 am 08:53 Cloudy with Mist and Fog 60 15.6 60 15.6 100 100 SSW 9 15 29.67 1005 5 8 0.00 0.00
9:53 am 09:53 Cloudy 61 16.1 59 15 93 93 SW 13 20 29.68 1005 10 16 0.00 0.00
10:30 am 10:30 Cloudy 61 16 57 14 88 88 SW 10 17 29.68 1005 10 16 0.00 0.00
10:53 am 10:53 Cloudy 61 16.1 58 14.4 90 90 SW 12 19 29.68 1005 10 16 0.00 0.00
11:37 am 11:37 Cloudy 63 17.2 58 14.4 84 84 SW 16 26 29.71 1006 10 16 0.00 0.00
11:53 am 11:53 Cloudy 63 17.2 57 13.9 81 81 SW 17 28 29.70 1006 10 16 0.00 0.00
12:53 pm 12:53 Mostly Cloudy 66 18.9 58 14.4 75 75 WSW 12 19 29.70 1006 10 16 0.00 0.00
1:05 pm 13:05 Cloudy 66 18.9 57 13.9 73 73 WSW 16 26 29.71 1006 10 16 0.00 0.00
1:24 pm 13:24 Cloudy 66 19 57 14 73 73 WSW 12 19 29.71 1006 10 16 0.00 0.00
1:53 pm 13:53 Cloudy 66 18.9 56 13.3 70 70 SW 13 20 29.70 1006 10 16 0.00 0.00
2:07 pm 14:07 Cloudy 67 19.4 57 13.9 71 71 SW 12 19 29.71 1006 10 16 0.00 0.00
2:53 pm 14:53 Cloudy 67 19.4 57 13.9 71 71 SW 14 22 29.71 1006 10 16 0.00 0.00
3:09 pm 15:09 Cloudy 67 19.4 57 13.9 71 71 WSW 10 17 29.71 1006 10 16 0.00 0.00
3:23 pm 15:23 Cloudy 68 20 58 14.4 70 70 WSW 12 19 29.68 1005 10 16 0.00 0.00
3:53 pm 15:53 Cloudy 69 20.6 58 14.4 68 68 SW 14 22 29.72 1007 10 16 0.00 0.00
4:53 pm 16:53 Mostly Cloudy 72 22.2 59 15 64 64 SW 13 20 29.72 1007 10 16 0.00 0.00
5:53 pm 17:53 Mostly Cloudy 72 22.2 58 14.4 61 61 SW 15 24 29.72 1006 10 16 0.00 0.00
6:53 pm 18:53 Partly Cloudy 72 22.2 57 13.9 59 59 SW 10 17 29.71 1006 10 16 0.00 0.00
7:53 pm 19:53 Mostly Cloudy 72 22.2 58 14.4 61 61 WSW 8 13 29.71 1006 10 16 0.00 0.00
8:53 pm 20:53 Mostly Clear 70 21.1 58 14.4 66 66 WSW 7 11 29.74 1007 10 16 0.00 0.00
9:53 pm 21:53 Mostly Clear 67 19.4 58 14.4 73 73 WSW 5 7 29.74 1007 10 16 0.00 0.00
10:53 pm 22:53 Mostly Cloudy 66 18.9 58 14.4 75 75 S 7 11 29.77 1008 10 16 0.00 0.00
11:53 pm 23:53 Mostly Cloudy 64 17.8 58 14.4 81 81 SW 6 9 29.77 1008 10 16 0.00 0.00

Powered by AerisWeather